{"data":{"norad_id":63784,"epoch":"2026-05-24T22:34:41.088576Z","epoch_age_seconds":79888,"freshness":"FRESH","line1":"1 63784U 25091K   26144.94075334  .00014911  00000+0  55012-3 0  9998","line2":"2 63784  43.0004 334.9640 0001460 264.9728  95.0957 15.27589274 60752","mean_motion":15.27589274,"eccentricity":0.000146,"inclination_deg":43.0004,"raan_deg":334.964,"arg_perigee_deg":264.9728,"mean_anomaly_deg":95.0957,"bstar":0.00055012,"rev_number":6075,"period_min":94.26617641988,"perigee_km":482.01959737217,"apogee_km":484.02305560351,"semimajor_km":6861.1583264878,"source":"CELESTRAK","updated_at":"2026-05-25T13:38:20.134840Z"}}